Location: Ciserano
(45.5833°N, 9.6000°E)
Time: 04:24:57
(UTC+00:00)

Cosmos 1812 - Pass Details

Date: 29 November 2020
Orbit: 517 x 520 km, 82.5° (Epoch: 24 January)

Event Time Altitude Azimuth Distance (km) Brightness Sun altitude
Exits shadow 05:42:40 - 338° (NNW) 2,248 5.5 -9.8°
Reaches altitude 10° 05:43:57 10° 331° (NNW) 1,759 4.9 -9.6°
Maximum altitude 05:47:22 31° 269° (W) 932 3.5 -9.0°
Drops below altitude 10° 05:50:46 10° 206° (SSW) 1,746 5.3 -8.5°
Sets 05:53:02 0° 196° (SSW) 2,629 6.4 -8.1°
